| time (UTC) | temp C | wind direction | speed KPH | gust KPH | rain 1hr cm | rain 24hr cm | rain mn cm | humidity % | barometer mb |
| 20260503021705 | 8 | 0 | 3.2 | 8.0 | 0.00 | 0.00 | 0.00 | 76 | 1018.8 |
| 20260503021204 | 8 | 0 | 3.2 | 6.4 | 0.00 | 0.00 | 0.00 | 76 | 1018.9 |
| 20260503020704 | 8 | 0 | 3.2 | 6.4 | 0.00 | 0.00 | 0.00 | 77 | 1018.9 |
| 20260503020205 | 8 | 0 | 4.8 | 6.4 | 0.00 | 0.00 | 0.00 | 77 | 1018.9 |
| 20260503015205 | 8 | 0 | 1.6 | 4.8 | 0.00 | 0.00 | 0.00 | 78 | 1018.9 |
| 20260503014704 | 8 | 0 | 1.6 | 4.8 | 0.00 | 0.00 | 0.00 | 77 | 1019.0 |
| 20260503014205 | 8 | 0 | 1.6 | 4.8 | 0.00 | 0.00 | 0.00 | 76 | 1019.0 |
| 20260503013704 | 8 | 0 | 3.2 | 4.8 | 0.00 | 0.00 | 0.00 | 75 | 1018.9 |
| 20260503013205 | 8 | 0 | 3.2 | 6.4 | 0.00 | 0.00 | 0.00 | 75 | 1019.0 |
| 20260503012704 | 8 | 0 | 3.2 | 6.4 | 0.00 | 0.00 | 0.00 | 74 | 1019.0 |
| 20260503012205 | 8 | 0 | 4.8 | 6.4 | 0.00 | 0.00 | 0.00 | 74 | 1019.0 |
| 20260503011705 | 8 | 0 | 3.2 | 6.4 | 0.00 | 0.00 | 0.00 | 75 | 1019.1 |
| 20260503011204 | 8 | 0 | 3.2 | 6.4 | 0.00 | 0.00 | 0.00 | 75 | 1019.2 |
| 20260503010705 | 8 | 0 | 3.2 | 6.4 | 0.00 | 0.00 | 0.00 | 75 | 1019.1 |
| 20260503010204 | 8 | 0 | 3.2 | 6.4 | 0.00 | 0.00 | 0.00 | 74 | 1019.1 |
| 20260503005704 | 8 | 0 | 3.2 | 6.4 | 0.00 | 0.00 | 0.00 | 73 | 1019.1 |
| 20260503005204 | 9 | 0 | 3.2 | 6.4 | 0.00 | 0.00 | 0.00 | 73 | 1019.1 |
| 20260503004705 | 9 | 0 | 3.2 | 6.4 | 0.00 | 0.00 | 0.00 | 73 | 1019.1 |
| 20260503004205 | 9 | 0 | 3.2 | 6.4 | 0.00 | 0.00 | 0.00 | 73 | 1019.2 |
| 20260503003704 | 9 | 0 | 3.2 | 6.4 | 0.00 | 0.00 | 0.00 | 73 | 1019.2 |
| 20260503003205 | 9 | 0 | 3.2 | 6.4 | 0.00 | 0.00 | 0.00 | 73 | 1019.2 |
| 20260503002704 | 9 | 0 | 3.2 | 4.8 | 0.00 | 0.00 | 0.00 | 73 | 1019.2 |
| 20260503002205 | 9 | 0 | 1.6 | 6.4 | 0.00 | 0.00 | 0.00 | 73 | 1019.2 |
| 20260503001704 | 9 | 0 | 3.2 | 6.4 | 0.00 | 0.00 | 0.00 | 72 | 1019.3 |
| 20260503001205 | 9 | 0 | 3.2 | 6.4 | 0.00 | 0.00 | 0.00 | 72 | 1019.3 |
| 20260503000705 | 9 | 0 | 3.2 | 6.4 | 0.00 | 0.00 | 0.00 | 72 | 1019.4 |
| 20260503000205 | 9 | 0 | 3.2 | 4.8 | 0.00 | 0.00 | 0.00 | 73 | 1019.4 |
| 20260502235705 | 9 | 0 | 1.6 | 4.8 | 0.00 | 0.00 | 0.00 | 74 | 1019.4 |
| 20260502235204 | 8 | 0 | 1.6 | 4.8 | 0.00 | 0.00 | 0.00 | 73 | 1019.4 |
| 20260502234705 | 9 | 0 | 3.2 | 4.8 | 0.00 | 0.00 | 0.00 | 72 | 1019.5 |
| 20260502234204 | 9 | 0 | 3.2 | 4.8 | 0.00 | 0.00 | 0.00 | 72 | 1019.5 |
| 20260502233704 | 9 | 0 | 3.2 | 4.8 | 0.00 | 0.00 | 0.00 | 72 | 1019.6 |
| 20260502233205 | 9 | 0 | 3.2 | 4.8 | 0.00 | 0.00 | 0.00 | 72 | 1019.6 |
| 20260502232704 | 9 | 0 | 3.2 | 4.8 | 0.00 | 0.00 | 0.00 | 72 | 1019.6 |
| 20260502231704 | 9 | 0 | 1.6 | 4.8 | 0.00 | 0.00 | 0.00 | 71 | 1019.7 |
| 20260502231205 | 10 | 0 | 1.6 | 4.8 | 0.00 | 0.00 | 0.00 | 71 | 1019.8 |
| 20260502230205 | 10 | 0 | 1.6 | 3.2 | 0.00 | 0.00 | 0.00 | 70 | 1019.7 |
| 20260502225705 | 10 | 0 | 1.6 | 3.2 | 0.00 | 0.00 | 0.00 | 70 | 1019.8 |
| 20260502225205 | 10 | 0 | 1.6 | 4.8 | 0.00 | 0.00 | 0.00 | 70 | 1019.8 |
| 20260502224705 | 10 | 0 | 1.6 | 4.8 | 0.00 | 0.00 | 0.00 | 70 | 1019.8 |
| 20260502224205 | 10 | 0 | 1.6 | 4.8 | 0.00 | 0.00 | 0.00 | 70 | 1019.9 |
| 20260502223705 | 10 | 0 | 3.2 | 4.8 | 0.00 | 0.00 | 0.00 | 70 | 1019.9 |
| 20260502223204 | 10 | 0 | 1.6 | 4.8 | 0.00 | 0.00 | 0.00 | 69 | 1019.9 |
| 20260502222205 | 10 | 0 | 1.6 | 3.2 | 0.00 | 0.00 | 0.00 | 69 | 1020.0 |
| 20260502221705 | 10 | 0 | 0.0 | 3.2 | 0.00 | 0.00 | 0.00 | 69 | 1020.0 |
| 20260502221204 | 10 | 0 | 0.0 | 1.6 | 0.00 | 0.00 | 0.00 | 69 | 1020.1 |
| 20260502220705 | 10 | 0 | 0.0 | 1.6 | 0.00 | 0.00 | 0.00 | 68 | 1020.0 |
| 20260502220204 | 10 | 0 | 0.0 | 1.6 | 0.00 | 0.00 | 0.00 | 68 | 1020.0 |
| 20260502215705 | 11 | 0 | 0.0 | 1.6 | 0.00 | 0.00 | 0.00 | 67 | 1020.0 |
| 20260502213704 | 11 | 0 | 0.0 | 3.2 | 0.00 | 0.00 | 0.00 | 66 | 1019.9 |
| 20260502213205 | 11 | 0 | 0.0 | 3.2 | 0.00 | 0.00 | 0.00 | 66 | 1019.9 |
| 20260502212704 | 11 | 0 | 0.0 | 3.2 | 0.00 | 0.00 | 0.00 | 65 | 1019.9 |
| 20260502212205 | 11 | 0 | 0.0 | 3.2 | 0.00 | 0.00 | 0.00 | 65 | 1019.9 |
| 20260502211704 | 11 | 0 | 0.0 | 3.2 | 0.00 | 0.00 | 0.00 | 65 | 1019.9 |
| 20260502211205 | 11 | 0 | 0.0 | 3.2 | 0.00 | 0.00 | 0.00 | 65 | 1019.9 |
| 20260502210705 | 12 | 0 | 1.6 | 3.2 | 0.00 | 0.00 | 0.00 | 64 | 1019.9 |
| 20260502210204 | 12 | 0 | 0.0 | 1.6 | 0.00 | 0.00 | 0.00 | 64 | 1019.9 |
| 20260502205705 | 11 | 0 | 0.0 | 4.8 | 0.00 | 0.00 | 0.00 | 65 | 1019.9 |
| 20260502205204 | 12 | 0 | 0.0 | 4.8 | 0.00 | 0.00 | 0.00 | 65 | 1019.9 |
| 20260502204205 | 12 | 0 | 0.0 | 4.8 | 0.00 | 0.00 | 0.00 | 63 | 1020.0 |
| 20260502203704 | 12 | 0 | 0.0 | 4.8 | 0.00 | 0.00 | 0.00 | 62 | 1020.0 |
| 20260502202704 | 12 | 0 | 1.6 | 4.8 | 0.00 | 0.00 | 0.00 | 61 | 1020.0 |
| 20260502202205 | 12 | 0 | 0.0 | 4.8 | 0.00 | 0.00 | 0.00 | 61 | 1020.0 |
| 20260502201704 | 13 | 0 | 0.0 | 3.2 | 0.00 | 0.00 | 0.00 | 61 | 1019.9 |
| 20260502200704 | 13 | 0 | 0.0 | 4.8 | 0.00 | 0.00 | 0.00 | 59 | 1020.0 |
| 20260502200204 | 13 | 0 | 1.6 | 4.8 | 0.00 | 0.00 | 0.00 | 59 | 1019.9 |
| 20260502195204 | 14 | 0 | 1.6 | 3.2 | 0.00 | 0.00 | 0.00 | 57 | 1019.9 |
| 20260502194704 | 14 | 0 | 0.0 | 3.2 | 0.00 | 0.00 | 0.00 | 57 | 1019.8 |
| 20260502194205 | 14 | 0 | 1.6 | 3.2 | 0.00 | 0.00 | 0.00 | 58 | 1019.8 |
| 20260502193704 | 13 | 0 | 1.6 | 3.2 | 0.00 | 0.00 | 0.00 | 59 | 1019.8 |
| 20260502193205 | 14 | 0 | 1.6 | 8.0 | 0.00 | 0.00 | 0.00 | 59 | 1019.7 |
| 20260502192704 | 14 | 0 | 1.6 | 8.0 | 0.00 | 0.00 | 0.00 | 57 | 1019.7 |
| 20260502192205 | 15 | 0 | 1.6 | 8.0 | 0.00 | 0.00 | 0.00 | 57 | 1019.7 |
| 20260502191704 | 15 | 0 | 1.6 | 8.0 | 0.00 | 0.00 | 0.00 | 55 | 1019.6 |
| 20260502191205 | 15 | 0 | 0.0 | 3.2 | 0.00 | 0.00 | 0.00 | 56 | 1019.5 |
| 20260502190705 | 15 | 0 | 0.0 | 3.2 | 0.00 | 0.00 | 0.00 | 55 | 1019.5 |
| 20260502190204 | 15 | 0 | 1.6 | 3.2 | 0.00 | 0.00 | 0.00 | 54 | 1019.4 |
| 20260502185705 | 15 | 0 | 0.0 | 1.6 | 0.00 | 0.00 | 0.00 | 54 | 1019.4 |
| 20260502185204 | 15 | 0 | 0.0 | 1.6 | 0.00 | 0.00 | 0.00 | 53 | 1019.3 |
| 20260502184704 | 15 | 0 | 0.0 | 0.0 | 0.00 | 0.00 | 0.00 | 53 | 1019.3 |
| 20260502184205 | 16 | 0 | 0.0 | 3.2 | 0.00 | 0.00 | 0.00 | 52 | 1019.2 |
| 20260502183704 | 16 | 0 | 0.0 | 3.2 | 0.00 | 0.00 | 0.00 | 51 | 1019.1 |
| 20260502183205 | 16 | 0 | 0.0 | 3.2 | 0.00 | 0.00 | 0.00 | 50 | 1019.1 |
| 20260502182704 | 16 | 0 | 0.0 | 3.2 | 0.00 | 0.00 | 0.00 | 49 | 1019.0 |
| 20260502182205 | 17 | 0 | 0.0 | 1.6 | 0.00 | 0.00 | 0.00 | 48 | 1019.0 |
| 20260502181704 | 17 | 0 | 0.0 | 1.6 | 0.00 | 0.00 | 0.00 | 48 | 1018.9 |
| 20260502181205 | 17 | 0 | 0.0 | 3.2 | 0.00 | 0.00 | 0.00 | 47 | 1018.8 |
| 20260502180705 | 18 | 0 | 1.6 | 3.2 | 0.00 | 0.00 | 0.00 | 46 | 1018.7 |
| 20260502180204 | 18 | 0 | 1.6 | 3.2 | 0.00 | 0.00 | 0.00 | 43 | 1018.7 |
| 20260502164204 | 23 | 108 | 3.2 | 11.3 | 0.00 | 0.00 | 0.00 | 32 | 1018.6 |
| 20260502163705 | 23 | 238 | 4.8 | 11.3 | 0.00 | 0.00 | 0.00 | 32 | 1018.6 |
| 20260502162704 | 23 | 210 | 4.8 | 11.3 | 0.00 | 0.00 | 0.00 | 31 | 1018.7 |
| 20260502162205 | 23 | 203 | 4.8 | 12.9 | 0.00 | 0.00 | 0.00 | 32 | 1018.7 |
| 20260502161205 | 23 | 189 | 6.4 | 12.9 | 0.00 | 0.00 | 0.00 | 32 | 1018.8 |
| 20260502160705 | 23 | 211 | 6.4 | 14.5 | 0.00 | 0.00 | 0.00 | 31 | 1018.9 |
| 20260502160205 | 23 | 182 | 6.4 | 14.5 | 0.00 | 0.00 | 0.00 | 31 | 1018.9 |
| 20260502152205 | 24 | 248 | 4.8 | 17.7 | 0.00 | 0.00 | 0.00 | 31 | 1019.2 |
| 20260502151204 | 22 | 136 | 6.4 | 14.5 | 0.00 | 0.00 | 0.00 | 32 | 1019.3 |
| 20260502150704 | 23 | 110 | 6.4 | 14.5 | 0.00 | 0.00 | 0.00 | 31 | 1019.4 |
| 20260502150205 | 23 | 202 | 6.4 | 16.1 | 0.00 | 0.00 | 0.00 | 32 | 1019.4 |
| 20260502130204 | 24 | 155 | 4.8 | 12.9 | 0.00 | 0.00 | 0.00 | 33 | 1020.5 |
| 20260502123704 | 23 | 105 | 6.4 | 14.5 | 0.00 | 0.00 | 0.00 | 33 | 1020.7 |
| 20260502123205 | 23 | 129 | 4.8 | 12.9 | 0.00 | 0.00 | 0.00 | 33 | 1020.8 |
| 20260502122704 | 23 | 203 | 4.8 | 9.7 | 0.00 | 0.00 | 0.00 | 31 | 1020.8 |
| 20260502122205 | 22 | 109 | 3.2 | 14.5 | 0.00 | 0.00 | 0.00 | 32 | 1020.9 |
| 20260502121704 | 23 | 205 | 3.2 | 14.5 | 0.00 | 0.00 | 0.00 | 33 | 1020.9 |
| 20260502121205 | 23 | 182 | 4.8 | 11.3 | 0.00 | 0.00 | 0.00 | 31 | 1021.0 |
| 20260502120205 | 22 | 190 | 4.8 | 14.5 | 0.00 | 0.00 | 0.00 | 32 | 1021.1 |
| 20260502115705 | 23 | 211 | 4.8 | 14.5 | 0.00 | 0.00 | 0.00 | 30 | 1021.1 |
| 20260502115205 | 23 | 203 | 3.2 | 11.3 | 0.00 | 0.00 | 0.00 | 31 | 1021.1 |
| 20260502114704 | 23 | 269 | 3.2 | 12.9 | 0.00 | 0.00 | 0.00 | 30 | 1021.2 |
| 20260502114204 | 22 | 160 | 4.8 | 12.9 | 0.00 | 0.00 | 0.00 | 30 | 1021.2 |
| 20260502113704 | 23 | 177 | 6.4 | 12.9 | 0.00 | 0.00 | 0.00 | 30 | 1021.3 |
| 20260502113204 | 24 | 167 | 3.2 | 12.9 | 0.00 | 0.00 | 0.00 | 30 | 1021.4 |
| 20260502112705 | 23 | 117 | 3.2 | 12.9 | 0.00 | 0.00 | 0.00 | 32 | 1021.5 |
| 20260502112205 | 22 | 174 | 4.8 | 12.9 | 0.00 | 0.00 | 0.00 | 28 | 1021.6 |
| 20260502111704 | 23 | 133 | 3.2 | 9.7 | 0.00 | 0.00 | 0.00 | 31 | 1021.6 |
| 20260502111206 | 22 | 222 | 3.2 | 11.3 | 0.00 | 0.00 | 0.00 | 30 | 1021.7 |
| 20260502105705 | 21 | 198 | 6.4 | 12.9 | 0.00 | 0.00 | 0.00 | 31 | 1021.9 |
| 20260502105204 | 22 | 138 | 6.4 | 12.9 | 0.00 | 0.00 | 0.00 | 29 | 1022.0 |
| 20260502104705 | 22 | 0 | 3.2 | 9.7 | 0.00 | 0.00 | 0.00 | 30 | 1022.0 |
| 20260502103705 | 22 | 291 | 4.8 | 12.9 | 0.00 | 0.00 | 0.00 | 28 | 1022.2 |
| 20260502103204 | 22 | 260 | 4.8 | 12.9 | 0.00 | 0.00 | 0.00 | 30 | 1022.2 |
| 20260502102705 | 22 | 202 | 4.8 | 14.5 | 0.00 | 0.00 | 0.00 | 30 | 1022.3 |
| 20260502102205 | 22 | 207 | 4.8 | 14.5 | 0.00 | 0.00 | 0.00 | 30 | 1022.3 |
| 20260502101704 | 22 | 264 | 4.8 | 17.7 | 0.00 | 0.00 | 0.00 | 29 | 1022.3 |
| 20260502100730 | 22 | 257 | 6.4 | 14.5 | 0.00 | 0.00 | 0.00 | 28 | 1022.5 |
| 20260502100205 | 22 | 153 | 4.8 | 9.7 | 0.00 | 0.00 | 0.00 | 30 | 1022.5 |
| 20260502091205 | 21 | 154 | 4.8 | 12.9 | 0.00 | 0.00 | 0.00 | 33 | 1023.4 |
| 20260502090705 | 21 | 171 | 6.4 | 11.3 | 0.00 | 0.00 | 0.00 | 32 | 1023.4 |
| 20260502090226 | 20 | 164 | 4.8 | 11.3 | 0.00 | 0.00 | 0.00 | 37 | 1023.5 |
| 20260502071222 | 15 | 0 | 8.0 | 14.5 | 0.00 | 0.00 | 0.00 | 54 | 1024.6 |
| 20260502070704 | 15 | 0 | 8.0 | 14.5 | 0.00 | 0.00 | 0.00 | 54 | 1024.6 |
| 20260502065704 | 13 | 0 | 8.0 | 14.5 | 0.00 | 0.00 | 0.00 | 56 | 1024.8 |
| 20260502065205 | 13 | 0 | 8.0 | 14.5 | 0.00 | 0.00 | 0.00 | 55 | 1024.8 |
| 20260502064704 | 13 | 0 | 6.4 | 14.5 | 0.00 | 0.00 | 0.00 | 57 | 1024.9 |
| 20260502064205 | 13 | 0 | 6.4 | 14.5 | 0.00 | 0.00 | 0.00 | 57 | 1024.9 |
| 20260502063704 | 13 | 0 | 8.0 | 16.1 | 0.00 | 0.00 | 0.00 | 58 | 1025.0 |
| 20260502061712 | 12 | 0 | 8.0 | 16.1 | 0.00 | 0.00 | 0.00 | 61 | 1025.1 |
| 20260502061205 | 11 | 0 | 8.0 | 16.1 | 0.00 | 0.00 | 0.00 | 61 | 1025.1 |
| 20260502060705 | 11 | 0 | 8.0 | 16.1 | 0.00 | 0.00 | 0.00 | 63 | 1025.2 |
| 20260502060204 | 11 | 0 | 8.0 | 16.1 | 0.00 | 0.00 | 0.00 | 63 | 1025.3 |
| 20260502055705 | 11 | 0 | 8.0 | 16.1 | 0.00 | 0.00 | 0.00 | 65 | 1025.3 |
| 20260502055204 | 10 | 0 | 6.4 | 16.1 | 0.00 | 0.00 | 0.00 | 65 | 1025.3 |
| 20260502054704 | 10 | 0 | 6.4 | 16.1 | 0.00 | 0.00 | 0.00 | 66 | 1025.5 |
| 20260502054204 | 10 | 0 | 6.4 | 16.1 | 0.00 | 0.00 | 0.00 | 66 | 1025.5 |
| 20260502053732 | 10 | 0 | 8.0 | 16.1 | 0.00 | 0.00 | 0.00 | 68 | 1025.5 |
| 20260502053205 | 9 | 0 | 8.0 | 11.3 | 0.00 | 0.00 | 0.00 | 69 | 1025.6 |
| 20260502052726 | 9 | 0 | 6.4 | 12.9 | 0.00 | 0.00 | 0.00 | 69 | 1025.5 |
| 20260502052205 | 8 | 0 | 6.4 | 14.5 | 0.00 | 0.00 | 0.00 | 70 | 1025.5 |
| 20260502051732 | 8 | 0 | 8.0 | 14.5 | 0.00 | 0.00 | 0.00 | 71 | 1025.5 |
| 20260502051205 | 8 | 0 | 8.0 | 17.7 | 0.00 | 0.00 | 0.00 | 72 | 1025.5 |
| 20260502050704 | 8 | 0 | 9.7 | 17.7 | 0.00 | 0.00 | 0.00 | 72 | 1025.5 |
| 20260502050205 | 8 | 0 | 8.0 | 17.7 | 0.00 | 0.00 | 0.00 | 73 | 1025.5 |
| 20260502045704 | 7 | 0 | 6.4 | 11.3 | 0.00 | 0.00 | 0.00 | 74 | 1025.5 |
| 20260502045205 | 7 | 0 | 6.4 | 11.3 | 0.00 | 0.00 | 0.00 | 74 | 1025.5 |
| 20260502044704 | 7 | 0 | 4.8 | 9.7 | 0.00 | 0.00 | 0.00 | 75 | 1025.5 |
| 20260502044205 | 7 | 0 | 4.8 | 11.3 | 0.00 | 0.00 | 0.00 | 76 | 1025.5 |
| 20260502043705 | 7 | 0 | 6.4 | 11.3 | 0.00 | 0.00 | 0.00 | 76 | 1025.5 |
| 20260502042705 | 6 | 0 | 6.4 | 9.7 | 0.00 | 0.00 | 0.00 | 77 | 1025.3 |
| 20260502041705 | 6 | 0 | 6.4 | 9.7 | 0.00 | 0.00 | 0.00 | 77 | 1025.3 |
| 20260502041204 | 6 | 0 | 4.8 | 9.7 | 0.00 | 0.00 | 0.00 | 77 | 1025.3 |
| 20260502040705 | 6 | 0 | 4.8 | 9.7 | 0.00 | 0.00 | 0.00 | 78 | 1025.3 |
| 20260502035705 | 6 | 0 | 6.4 | 8.0 | 0.00 | 0.00 | 0.00 | 78 | 1025.3 |
| 20260502034705 | 6 | 0 | 3.2 | 8.0 | 0.00 | 0.00 | 0.00 | 79 | 1025.2 |
| 20260502034205 | 6 | 0 | 3.2 | 8.0 | 0.00 | 0.00 | 0.00 | 78 | 1025.2 |
| 20260502033705 | 6 | 0 | 4.8 | 8.0 | 0.00 | 0.00 | 0.00 | 78 | 1025.2 |
| 20260502033205 | 6 | 0 | 4.8 | 8.0 | 0.00 | 0.00 | 0.00 | 79 | 1025.2 |
| 20260502032705 | 6 | 0 | 4.8 | 8.0 | 0.00 | 0.00 | 0.00 | 79 | 1025.2 |
| 20260502032205 | 6 | 0 | 3.2 | 6.4 | 0.00 | 0.00 | 0.00 | 79 | 1025.1 |
| 20260502031704 | 6 | 0 | 3.2 | 8.0 | 0.00 | 0.00 | 0.00 | 78 | 1025.2 |
| 20260502031205 | 6 | 0 | 4.8 | 8.0 | 0.00 | 0.00 | 0.00 | 78 | 1025.1 |
| 20260502025704 | 6 | 0 | 3.2 | 6.4 | 0.00 | 0.00 | 0.00 | 78 | 1025.2 |
| 20260502025205 | 6 | 0 | 4.8 | 6.4 | 0.00 | 0.00 | 0.00 | 78 | 1025.3 |
| 20260502024205 | 6 | 0 | 4.8 | 8.0 | 0.00 | 0.00 | 0.00 | 77 | 1025.2 |
| 20260502023205 | 6 | 0 | 4.8 | 8.0 | 0.00 | 0.00 | 0.00 | 78 | 1025.2 |
| 20260502022205 | 6 | 0 | 4.8 | 6.4 | 0.00 | 0.00 | 0.00 | 78 | 1025.3 |